969  
ASUS46 KPDT 220804  
RWRPDT  
PENDLETON REGIONAL WEATHER ROUNDUP  
NATIONAL WEATHER SERVICE PENDLETON OREGON  
100 AM PDT FRI SEP 22 2017  
 
NOTE: FAIR INDICATES FEW OR NO CLOUDS BELOW 12,000 FEET WITH NO  
SIGNIFICANT WEATHER AND/OR S TO VISIBILITY
.  
 
# INDICATES UNOFFICIAL STATION AND DATA  
 
WAZ520-220910-  
EAST SLOPES OF WASHINGTON CASCADES  
 
CITY SKY/WX TMP DP RH WIND PRES REMARKS
 
#BULLFROG N/A 44 42 93 CALM N/A  
#CLE ELUM HS N/A 44 40 86 CALM 29.93S  
#CLE ELUM LAKE N/A 44 40 86 E1 29.96S  
#EASTON DOT N/A 43 41 93 CALM N/A  
#ELK HTS DOT N/A 44 44 100 CALM N/A  
#GLENWOOD N/A 44 43 96 CALM 29.99F  
#NELSON 3SW N/A 41 39 93 CALM 30.17S  
#NILE N/A 41 40 96 CALM 29.28S  
#TEANAWAY 4NE N/A 42 41 96 CALM N/A  
#TROUT LAKE 1NE N/A 44 43 96 CALM 29.99S  
#TROUT LAKE 1E N/A 44 42 93 CALM 30.00F  

 
 
WAZ521-220910-  
SIMCOE HIGHLANDS  
 
CITY SKY/WX TMP DP RH WIND PRES REMARKS
 
#BICKLETON HS N/A 44 39 82 N7 29.91S  
#CENTERVILLE 1SWN/A 45 40 82 CALM 29.92S  
#GOLDENDALE 1NE N/A 47 40 76 CALM N/A  
#GOLDENDALE 4W N/A 46 34 63 CALM 29.99F  
#GOODNOE HILLS N/A 49 45 86 NW7 N/A  
#LYLE 6NE N/A 48 47 96 S2 29.98S  
#PITT 4SE N/A 43 42 96 CALM 30.01S  

 
 
WAZ026-220910-  
KITTITAS VALLEY  
 
CITY SKY/WX TMP DP RH WIND PRES REMARKS
 
ELLENSBURG AP MOCLDY 42 38 86 CALM 29.97S  
#ELLENSBURG CWU N/A 46 42 86 CALM 29.91S  
#ELLENSBURG 3NE N/A 41 37 86 CALM 28.05S  
#ELLENSBURG 1E N/A 43 40 89 CALM 30.00R  
#KITTITAS 3S N/A 40 38 92 CALM 29.96S  
#MANASTASH RDG N/A 46 45 96 NW8 N/A  
#ROCKY CYN DOT N/A 46 43 89 W6 N/A  
#RYEGRASS DOT N/A 44 40 86 W3 N/A  

 
 
WAZ027-220910-  
YAKIMA VALLEY  
 
CITY SKY/WX TMP DP RH WIND PRES REMARKS
 
SUNNYSIDE AP CLOUDY 48 44 86 CALM 29.96S  
YAKIMA AIRPORT CLOUDY 48 43 83 SW3 29.97S  
YAKIMA-VAGABOND MOCLDY 45 41 86 CALM 29.95S  
#DONALD 2NE N/A 53 26 35 NW3 29.95F  
#GRANDVIEW N/A 49 44 83 CALM 29.97F  
#MABTON N/A 48 43 83 W1 29.96R  
#MOXEE 2E N/A 48 N/A N/A CALM 29.93S  
#NACHES 2SW N/A 48 42 80 W8 29.97S  
#OUTLOOK DOT N/A 51 44 77 CALM 29.92S  
#PARKER DOT N/A 53 42 66 S8 29.95S  
#TERRACE HTS N/A 48 43 83 CALM 29.93F  
#TOPPENISH N/A 51 43 74 CALM 29.88F  
#I82 S UMTANUM RN/A 46 42 86 CALM N/A  
#UNION GAP DOT N/A 47 43 86 CALM 29.99S  
#W YAKIMA N/A 48 42 80 NW2 29.96S  
#WHITE SWAN 5E N/A 48 43 83 CALM 29.97S  
#WILEY CITY 3W N/A 46 37 71 CALM 29.93F  
#ZILLAH DOT N/A 51 42 71 NW6 N/A  

 
 
WAZ028-220910-  
LOWER COLUMBIA BASIN...WASHINGTON  
 
CITY SKY/WX TMP DP RH WIND PRES REMARKS
 
PASCO CLOUDY 49 45 86 N5 29.96S  
PROSSER AWOS N/A 48 45 89 CALM 29.99S  
RICHLAND AWOS MOCLDY 50 48 93 CALM 29.96S  
#BENTON CITY N/A 49 44 83 CALM 29.86R  
#CONNELL 5N N/A 44 41 89 CALM 29.96S  
#CONNELL 5NW N/A 44 40 86 CALM 29.91S  
#ELTOPIA 6NW N/A 48 46 93 CALM 28.92S  
#KAHLOTUS N/A 42 38 86 CALM 29.95S  
#KENNEWICK 3S N/A 49 45 86 CALM 29.96R  
#PATERSON N/A 52 45 77 CALM 29.93S  
#PROSSER DOT N/A 50 45 83 CALM 29.96S  
#SAGEMOOR 2W N/A 48 45 89 N2 29.81F  
#TOUCHET 2S N/A 45 40 82 CALM 29.92F  
#WEST PASCO N/A 49 47 93 CALM 29.93S  

 
 
WAZ029-220910-  
FOOTHILLS OF THE BLUES...WASHINGTON  
 
CITY SKY/WX TMP DP RH WIND PRES REMARKS
 
WALLA WALLA AP CLEAR 47 40 76 S5 29.94S  
#CLYDE 6NW N/A 40 38 92 CALM 29.94S  
#DAYTON SCHOOL N/A 40 32 73 N1 29.95S  
#LOWDEN 2SE N/A 40 38 92 CALM 29.92S  
#PLEASANT VIEW 1N/A 45 41 86 NW1 29.97F  
#PRESCOTT N/A 41 37 86 CALM 29.93S  
#WHITMAN COLLEGEN/A 46 41 83 SW3 29.99S  
#WAITSBURG 6SSE N/A 41 36 82 SE3 29.96S  
#WALLA WALLA 5E N/A 43 38 82 NE2 N/A  

 
 
WAZ030-220910-  
BLUE MOUNTAINS...WASHINGTON  
 
CITY SKY/WX TMP DP RH WIND PRES REMARKS
 
#DIXIE 5SE N/A 45 38 76 CALM 29.85S  

 
 
ORZ009-041-WAZ024-220910-  
COLUMBIA RIVER GORGE  
 
CITY SKY/WX TMP DP RH WIND PRES REMARKS
 
HOOD RIVER AP MOCLDY 50 46 86 CALM 29.99S  
THE DALLES AP MOCLDY 54 50 86 NW8 29.96F  
#CELILO DOT N/A 54 44 69 W3 N/A  
#LYLE N/A 53 50 89 CALM 29.98F  
#MARYHILL N/A 50 46 86 N7 N/A  
#MURDOCK N/A 55 48 77 NW12 29.93F  
#RUFUS DOT N/A 56 N/A N/A W12 N/A  
#SMITHVILLE N/A 54 49 83 N8 29.92S  
 

 
 
ORZ510-220910-  
NORTH CENTRAL OREGON  
 
CITY SKY/WX TMP DP RH WIND PRES REMARKS
 
#ANTELOPE N/A 43 38 82 CALM 29.85S  
#CHENOWITH 1W N/A 47 45 93 W14 N/A WCI 41  
#COW CYN RST AREN/A 43 40 89 NW5 N/A  
#DUFUR N/A 44 42 93 CALM 29.94F  
#DUFUR 9E N/A 46 43 89 SW3 30.02F  
#GRASS VALLEY 1SN/A 44 40 86 CALM 29.98S  
#KENT DOT N/A 42 36 79 W6 N/A  
#MAUPIN SCHOOL N/A 48 42 80 N2 30.03R  
#MORO SCHOOL N/A 46 45 96 W5 29.95F  
#SHANIKO 4NW N/A 40 38 92 N6 29.95S  
#TYGH VALLEY 2NEN/A 47 43 86 CALM 29.98S  
#WAPANITIA AIRPON/A 42 40 93 NW1 29.99S  
#WASCO DOT N/A 47 44 89 CALM N/A  
#WASCO 5NE N/A 47 41 79 W6 29.95S  

 
 
ORZ511-220910-  
CENTRAL OREGON  
 
CITY SKY/WX TMP DP RH WIND PRES REMARKS
 
BEND AIRPORT MOCLDY 43 39 86 NW5 29.98R  
MADRAS AIRPORT MOCLDY N/A N/A N/A CALM 29.99S  
PRINEVILLE AP MOCLDY 41 36 82 W5 29.97S  
REDMOND AIRPORT CLOUDY 44 37 76 NW7 29.97R  
#ASHWOOD SCHOOL N/A 43 39 86 CALM 29.94S  
#BEND 1SW N/A 41 38 89 CALM N/A  
#BEND-AWBREY N/A 42 39 89 CALM 29.98S  
#BEND-KIM LN N/A 42 38 86 CALM 29.93S  
#CULVER N/A 41 38 89 CALM 29.87R  
#CULVER 8W N/A 42 39 89 CALM 29.99R  
#LAKE BILLY CHINN/A 44 N/A N/A CALM 30.06R  
#MADRAS 4S N/A 42 30 62 CALM N/A  
#POWELL BUTTE N/A 42 39 89 W2 29.92R  
#PRINEVILLE N/A 39 35 85 CALM 30.06R  
#PRINEVILLE 3N N/A 44 38 79 N3 29.95S  
#WARM SPRINGS N/A 48 41 77 CALM 29.82F  
 

 
 
 
ORZ509-220910-  
EAST SLOPES OF OREGON CASCADES  
 
CITY SKY/WX TMP DP RH WIND PRES REMARKS
 
SISTERS AWOS N/A 43 37 79 CALM N/A  
#CAMP SHERMAN N/A 38 34 85 CALM 30.04S  
#LA PINE 4NW N/A 36 32 85 CALM 30.03S  
#LAVA BUTTE DOT N/A 38 35 89 CALM N/A  
#SISTERS ODOT N/A 43 38 82 CALM N/A  
#SISTERS 3N N/A 41 35 79 CALM 30.00S  
#SUNRIVER N/A 39 36 89 CALM 29.99S  
#TUMALO 3W N/A 41 36 82 NW3 29.86S  
#WANOGA BUTTE D N/A 31 31 100 CALM N/A  
 

 
 
ORZ044-220910-  
LOWER COLUMBIA BASIN...OREGON  
 
CITY SKY/WX TMP DP RH WIND PRES REMARKS
 
HERMISTON MOCLDY 48 44 86 VRB3 29.95R  
#BOARDMAN SCHOOLN/A 57 46 67 NW1 29.94S  
#BOARDMAN 8SW N/A 52 46 80 SW3 29.96S  
#ECHO 8SW N/A 48 43 83 CALM 29.96S  
#I-84 EX 198 DOTN/A 48 42 80 NE5 N/A  
#IONE SCHOOL N/A 50 30 46 CALM 29.96S  
#UMATILLA N/A 51 43 74 CALM 29.88R  

 
 
ORZ507-220910-  
NORTHERN FOOTHILLS OF THE BLUES  
 
CITY SKY/WX TMP DP RH WIND PRES REMARKS
 
PENDLETON AIRPT PTCLDY 48 41 77 CALM 29.94S  
#ADAMS 3WNW N/A 44 40 86 CALM 29.93F  
#ATHENA N/A 41 38 89 CALM 29.97F  
#CAYUSE N/A 44 40 86 E3 29.94S  
#HELIX SCHOOL N/A 43 39 86 N3 29.94S  
#HELIX 3N N/A 44 40 86 NW2 29.91F  
#HOLDMAN 5SE N/A 44 40 86 CALM 29.93F  
#HOLDMAN 6E N/A 44 40 86 CALM 29.75R  
#M-F GROVE ELEM N/A 43 36 76 CALM 29.92S  
#M-FREEWATER 5SEN/A 43 38 82 CALM 29.94S  
#PENDLETON DNTN N/A 48 38 68 CALM 29.95S  
#PDT AQUATIC CTRN/A 47 39 74 CALM 29.93S  
#PDT SUNRIDGE N/A 45 42 89 CALM 29.96S  
#PENDLETON 7NW N/A 45 39 79 CALM 29.85R  
#PILOT ROCK 1S N/A 46 38 73 CALM 29.96R  
#PILOT ROCK N/A 46 41 83 CALM 29.97R  
#TUTUILLA N/A 45 41 86 CALM 30.00S  
#UMAPINE 2E N/A 41 38 89 CALM 29.92S  
#WESTON SCHOOL N/A 42 35 76 CALM 29.88S  
 

 
 
ORZ508-220910-  
SOUTHERN FOOTHILLS OF THE BLUES  
 
CITY SKY/WX TMP DP RH WIND PRES REMARKS
 
LEXINGTON CLOUDY 48 41 77 SE6 29.99S HAZE  
#AJAX N/A 47 36 65 W1 30.11S  
#FOSSIL SCHOOL N/A 44 41 89 CALM 29.91S  
#HEPPNER EOC N/A 47 41 79 CALM 29.89F  
#HEPPNER 4NE N/A 45 40 82 W2 29.96S  
#LEXINGTON 2SE N/A 47 42 83 CALM 29.92S  
#MIKKALO N/A 47 40 76 CALM 30.06S  
#OLEX 4N N/A 48 44 86 SW5 29.94S  
#RUGGS 5NE N/A 44 40 86 CALM 30.11F  
#RUGGS 2SW N/A 44 39 82 CALM 29.98S  
 

 
 
ORZ502-503-220910-  
BLUE MOUNTAINS  
 
CITY SKY/WX TMP DP RH WIND PRES REMARKS
 
MEACHAM CLOUDY 34 32 92 CALM 29.93S  
#BATTLE MTN DOT N/A 38 35 89 CALM N/A  
#GRANITE N/A 36 32 85 NE1 29.86S  
#GREENHORN 9SW N/A 37 34 89 CALM 26.13R  
#HEPPNER 15SE N/A 38 36 92 CALM 29.86S  
#LADD CYN SMT N/A 41 35 79 NW7 N/A  
#LADD CREEK ODOTN/A 41 36 82 CALM N/A  
#LONG CREEK HS N/A 39 39 100 CALM 29.94S  
#N POWDER DOT N/A 39 35 85 N8 N/A  
#PIKES PEAK N/A 42 36 79 CALM 27.99S  
#TOLLGATE N/A 34 33 96 CALM 29.79S  
#TROY SCHOOL N/A 42 39 89 CALM 29.81S  
#UKIAH N/A 38 36 92 CALM 29.88S  
#WESTON 4E N/A 40 37 89 CALM 29.92F  

 
 
ORZ505-220910-  
JOHN DAY BASIN  
 
CITY SKY/WX TMP DP RH WIND PRES REMARKS
 
JOHN DAY CLOUDY 43 36 76 CALM 29.94R  
#JOHN DAY KJDY N/A 43 N/A N/A CALM 28.90F  
#ANTELOPE 9ESE N/A 48 40 74 CALM N/A  
#DAYVILLE SCHOOLN/A 42 36 79 CALM 29.92S  
#MITCHELL N/A 44 39 82 CALM 30.13S  
#MONUMENT HS N/A 42 38 86 CALM 29.92S  
#MT. VERNON 5SE N/A 40 34 79 CALM 29.88S  
#SPRAY SCHOOL N/A 47 N/A N/A CALM N/A  
#WINLOCK N/A 44 39 82 CALM 29.92S  

 
 
ORZ506-220910-  
OCHOCO AND JOHN DAY HIGHLANDS  
 
CITY SKY/WX TMP DP RH WIND PRES REMARKS
 
#HORSE RIDGE DO N/A 40 36 85 NW6 N/A  
#IZEE 6NW N/A 35 32 89 S2 N/A  
#PAULINA ODOT N/A 37 29 72 SW1 N/A  
#PINE MTN OBS N/A 32 31 96 NW1 N/A  
#PRAIRIE CITY N/A 38 34 85 CALM 30.06S  
#SENECA N/A 34 N/A N/A CALM N/A  
#SENECA 9NW N/A 33 30 89 CALM 29.96S  

 
 
ORZ049-220910-  
GRANDE RONDE VALLEY  
 
CITY SKY/WX TMP DP RH WIND PRES REMARKS
 
LA GRANDE MOCLDY 43 37 79 NW8 29.93F  
#COVE N/A 42 41 96 CALM 29.95S  
#COVE SCHOOL N/A 41 38 89 CALM 29.94S  
#COVE 6NW N/A 42 39 89 W1 29.93F  
#ELGIN 3N N/A 35 33 92 CALM 30.34S  
#ELGIN 1E N/A 38 33 82 CALM N/A  
#IMBLER SCHOOL N/A 38 36 92 CALM 29.91S  
#ISLAND CITY 4N N/A 47 46 96 CALM 30.01S  
#LA GRANDE-LEFFEN/A 42 37 82 W7 30.33S  
#UNION 1S N/A 42 38 86 N5 29.93S  

 
 
ORZ050-220910-  
WALLOWA COUNTY  
 
CITY SKY/WX TMP DP RH WIND PRES REMARKS
 
#ENTERPRISE HS N/A 37 35 92 CALM 29.84S  
#IMNAHA SCHOOL N/A 46 43 89 CALM 29.93S  
#IMNAHA 10S N/A 42 39 89 CALM 29.92S  
#JOSEPH N/A 38 37 96 CALM 30.13S  
#JOSEPH 3N N/A 35 30 82 CALM 29.95S  
#JOSEPH 3W N/A 35 35 100 CALM 30.29S  
#LOSTINE N/A 35 32 89 CALM 29.76S  
#LOSTINE 3SE N/A 35 34 96 CALM 29.96S  
#MT HOWARD 8000 N/A 25 24 96 N1 29.85F  
#PROMISE 1S N/A 35 33 92 CALM 30.03F  
#WALLOWA LAKE N/A 37 36 96 CALM 29.93S  
#WALLOWA SCHOOL N/A 39 38 96 CALM 29.91S  
 

 
 
CLICK HERE TO GO TO PREVIOUS BULLETINS.

The Nexlab OR Page
The Nexlab WA Page Main Text Page